Location: Unspecified
(47.3532°N, 122.5883°W)
Time: 05:36:37
(UTC-07:00)

Okean 3 - Visible Passes

Search period start: 21 June 2018 00:00
Search period end: 01 July 2018 00:00
Orbit: 576 x 603 km, 82.5° (Epoch: 20 June)

Date Brightness Start Highest point End Pass type
(mag) Time Alt. Az. Time Alt. Az. Time Alt. Az.
21 Jun 4.0 04:10:39 10° N 04:14:49 63° ENE 04:18:59 10° SSE visible
22 Jun 6.6 02:44:19 10° NE 02:45:00 10° ENE 02:45:40 10° ENE visible
22 Jun 3.5 04:18:41 10° N 04:22:54 88° W 04:27:07 10° S visible
23 Jun 6.2 02:50:54 10° NNE 02:53:17 15° ENE 02:55:40 10° E visible
23 Jun 3.5 04:26:49 10° NNW 04:30:57 59° W 04:35:05 10° S visible
24 Jun 5.9 02:58:22 10° NNE 03:01:32 20° ENE 03:04:42 10° ESE visible
25 Jun 5.3 03:06:05 10° NNE 03:09:45 28° ENE 03:13:24 10° SE visible
26 Jun 4.7 03:13:55 10° N 03:17:54 40° ENE 03:21:54 10° SE visible
27 Jun 4.0 03:21:52 10° N 03:26:02 59° ENE 03:30:13 10° SSE visible
28 Jun 3.4 03:29:54 10° N 03:34:08 87° E 03:38:22 10° S visible
29 Jun 6.1 02:02:14 10° NNE 02:04:28 14° ENE 02:06:44 10° E visible
29 Jun 3.5 03:38:00 10° NNW 03:42:11 64° W 03:45:57 13° S visible
30 Jun 5.8 02:09:38 10° NNE 02:12:44 19° ENE 02:15:50 10° ESE visible
30 Jun 3.9 03:46:12 10° NNW 03:50:12 43° W 03:53:31 14° SSW visible
